SIRIUS-1 1 26390U 00035A 10075.39931512 .00000032 00000-0 10000-3 0 6596 2 26390 61.2728 252.8601 2683483 269.3797 60.0236 1.00276130 35576 SIRIUS-2 1 26483U 00051A 10075.06955824 .00000092 00000-0 10000-3 0 3204 2 26483 63.7718 132.9444 2653081 269.9228 60.1213 1.00282534 34901 SIRIUS-3 1 26626U 00077A 10074.73980298 -.00000130 00000-0 10000-3 0 5641 2 26626 64.2712 12.6360 2669908 270.5395 59.3703 1.00276923 34032 XM-2 (ROCK) 1 26724U 01012A 10074.28873424 -.00000208 00000-0 00000+0 0 7331 2 26724 0.0974 273.5153 0000543 244.0799 33.9038 1.00272077 33015 XM-1 (ROLL) 1 26761U 01018A 10074.35556194 -.00000208 00000-0 00000+0 0 5235 2 26761 0.1005 272.1335 0000431 120.6831 182.8731 1.00271933 32485 XM-3 (RHYTHM) 1 28626U 05008A 10074.28873459 -.00000208 00000-0 00000+0 0 6992 2 28626 0.0028 171.1789 0000562 254.0303 126.4030 1.00270526 18525 XM-4 (BLUES) 1 29520U 06049A 10074.25709112 -.00000027 00000-0 10000-3 0 4805 2 29520 0.0043 150.4790 0000400 81.6346 278.1862 1.00273004 12469